When you browse on this site, cookies collect data to enhance your experience and personalize the content and advertising you see.
Visit our Privacy Policy to learn more. By continuing to use the site, you agree to this use of cookies and data.
  • In Denmark
  • List of Countries
  • For 7 days
  • Water Temperature
  • Satellite Maps
  • Weather Map
  • Weather Widgets
  • user-avatar
    Login

    Hourly Weather Jarostowa

    Today, 15 December, Saturday

    Time Temperature Precipitation Wind Pressure Humidity
    00:00 -3°C° 0 mm 2 mps 742 mmHg 92%
    01:00 -3°C° 0 mm 2 mps 742 mmHg 92%
    02:00 -3°C° 0 mm 2 mps 742 mmHg 91%
    03:00 -4°C° 0 mm 2 mps 742 mmHg 91%
    04:00 -4°C° 0 mm 2 mps 742 mmHg 91%
    05:00 -5°C° 0 mm 3 mps 742 mmHg 90%
    06:00 -5°C° 0 mm 3 mps 742 mmHg 89%
    07:00 -5°C° 0 mm 3 mps 742 mmHg 90%
    08:00 -5°C° 0 mm 3 mps 742 mmHg 87%
    09:00 -4°C° 0 mm 4 mps 742 mmHg 84%
    10:00 -4°C° 0 mm 4 mps 742 mmHg 81%
    11:00 -4°C° 0 mm 4 mps 742 mmHg 80%
    12:00 -3°C° 0 mm 4 mps 742 mmHg 79%
    13:00 -3°C° 0 mm 4 mps 742 mmHg 78%
    14:00 -3°C° 0.1 mm 4 mps 741 mmHg 80%
    15:00 -4°C° 0.1 mm 4 mps 741 mmHg 83%
    16:00 -4°C° 0.1 mm 4 mps 741 mmHg 85%
    17:00 -4°C° 0.4 mm 4 mps 741 mmHg 87%
    18:00 -4°C° 0.4 mm 4 mps 741 mmHg 89%
    19:00 -4°C° 0.4 mm 4 mps 741 mmHg 91%
    20:00 -4°C° 0.3 mm 3 mps 740 mmHg 92%
    21:00 -4°C° 0.3 mm 3 mps 740 mmHg 92%
    22:00 -4°C° 0.3 mm 3 mps 740 mmHg 92%
    23:00 -4°C° 0.2 mm 3 mps 740 mmHg 93%

    Tomorrow, 16 December, Sunday

    Time Temperature Precipitation Wind Pressure Humidity
    00:00 -3°C° 0.2 mm 2 mps 739 mmHg 93%
    01:00 -3°C° 0.2 mm 2 mps 739 mmHg 94%
    02:00 -3°C° 0.2 mm 2 mps 739 mmHg 94%
    03:00 -1°C° 0.2 mm 1 mps 738 mmHg 94%
    04:00 -1°C° 0.2 mm 1 mps 738 mmHg 95%
    05:00 -1°C° 0.3 mm 1 mps 738 mmHg 95%
    06:00 -1°C° 0.3 mm 1 mps 738 mmHg 95%
    07:00 -2°C° 0.3 mm 0 mps 738 mmHg 95%
    08:00 -2°C° 0.1 mm 0 mps 738 mmHg 93%
    09:00 -1°C° 0.1 mm 0 mps 738 mmHg 91%
    10:00 -1°C° 0.1 mm 0 mps 738 mmHg 88%
    11:00 0°C° 0.1 mm 0 mps 738 mmHg 87%
    12:00 0°C° 0.1 mm 0 mps 738 mmHg 86%
    13:00 0°C° 0.1 mm 0 mps 738 mmHg 85%
    14:00 0°C° 0 mm 0 mps 738 mmHg 88%
    15:00 -1°C° 0 mm 0 mps 738 mmHg 90%
    16:00 -1°C° 0 mm 1 mps 738 mmHg 93%
    17:00 -1°C° 0 mm 1 mps 738 mmHg 93%
    18:00 -1°C° 0 mm 1 mps 738 mmHg 93%
    19:00 -2°C° 0 mm 1 mps 739 mmHg 93%
    20:00 -2°C° 0 mm 1 mps 739 mmHg 92%
    21:00 -2°C° 0 mm 1 mps 739 mmHg 92%
    22:00 -2°C° 0 mm 1 mps 739 mmHg 92%
    23:00 -2°C° 0 mm 1 mps 739 mmHg 91%

    Day after tomorrow, 17 December, Monday

    Time Temperature Precipitation Wind Pressure Humidity
    00:00 -2°C° 0 mm 1 mps 739 mmHg 91%
    01:00 -2°C° 0 mm 1 mps 739 mmHg 91%
    02:00 -2°C° 0 mm 1 mps 739 mmHg 90%
    03:00 -2°C° 0 mm 1 mps 739 mmHg 89%
    04:00 -2°C° 0 mm 1 mps 739 mmHg 88%
    05:00 -2°C° 0 mm 1 mps 739 mmHg 87%
    06:00 -2°C° 0 mm 1 mps 740 mmHg 86%
    07:00 -2°C° 0 mm 1 mps 740 mmHg 85%
    08:00 -1°C° 0 mm 1 mps 740 mmHg 83%
    09:00 -1°C° 0 mm 1 mps 741 mmHg 81%
    10:00 0°C° 0 mm 1 mps 741 mmHg 79%
    11:00 0°C° 0 mm 0 mps 741 mmHg 78%
    12:00 +1°C° 0 mm 0 mps 741 mmHg 77%
    13:00 +1°C° 0 mm 0 mps 741 mmHg 77%
    14:00 0°C° 0 mm 0 mps 741 mmHg 79%
    15:00 -1°C° 0 mm 0 mps 741 mmHg 81%
    16:00 -2°C° 0 mm 0 mps 742 mmHg 83%
    17:00 -2°C° 0 mm 0 mps 742 mmHg 84%
    18:00 -1°C° 0 mm 1 mps 743 mmHg 84%
    19:00 -1°C° 0 mm 1 mps 743 mmHg 85%
    20:00 -1°C° 0 mm 1 mps 743 mmHg 86%
    21:00 -1°C° 0 mm 1 mps 744 mmHg 87%
    22:00 -1°C° 0 mm 1 mps 744 mmHg 88%
    23:00 -1°C° 0 mm 1 mps 744 mmHg 88%

    18 December, Tuesday

    Time Temperature Precipitation Wind Pressure Humidity
    00:00 -1°C° 0 mm 1 mps 744 mmHg 88%
    01:00 -1°C° 0 mm 1 mps 744 mmHg 89%
    02:00 -2°C° 0 mm 0 mps 744 mmHg 89%
    03:00 -2°C° 0 mm 0 mps 744 mmHg 89%
    04:00 -2°C° 0 mm 0 mps 744 mmHg 90%
    05:00 -3°C° 0 mm 0 mps 745 mmHg 90%
    06:00 -3°C° 0 mm 0 mps 745 mmHg 90%
    07:00 -3°C° 0 mm 0 mps 745 mmHg 91%
    08:00 -2°C° 0 mm 0 mps 746 mmHg 90%
    09:00 -1°C° 0 mm 0 mps 746 mmHg 88%
    10:00 0°C° 0 mm 0 mps 746 mmHg 87%
    11:00 0°C° 0 mm 0 mps 746 mmHg 87%
    12:00 +2°C° 0 mm 1 mps 745 mmHg 87%
    13:00 +2°C° 0 mm 1 mps 745 mmHg 88%
    14:00 +1°C° 0 mm 1 mps 745 mmHg 90%
    15:00 +1°C° 0 mm 1 mps 745 mmHg 93%
    16:00 0°C° 0 mm 1 mps 745 mmHg 95%
    17:00 0°C° 0 mm 1 mps 745 mmHg 95%
    18:00 0°C° 0 mm 1 mps 746 mmHg 96%
    19:00 -1°C° 0 mm 1 mps 746 mmHg 96%
    20:00 -1°C° 0 mm 1 mps 746 mmHg 96%
    21:00 -1°C° 0 mm 1 mps 746 mmHg 96%
    22:00 -1°C° 0 mm 1 mps 746 mmHg 96%
    23:00 -1°C° 0 mm 1 mps 745 mmHg 95%

    19 December, Wednesday

    Time Temperature Precipitation Wind Pressure Humidity
    00:00 -1°C° 0 mm 1 mps 745 mmHg 95%
    01:00 -1°C° 0 mm 1 mps 745 mmHg 95%
    02:00 -1°C° 0 mm 1 mps 745 mmHg 96%
    03:00 -1°C° 0 mm 1 mps 745 mmHg 96%
    04:00 -1°C° 0 mm 1 mps 745 mmHg 96%
    05:00 -2°C° 0 mm 1 mps 745 mmHg 95%
    06:00 -2°C° 0 mm 1 mps 745 mmHg 95%
    07:00 -2°C° 0 mm 1 mps 745 mmHg 94%
    08:00 -3°C° 0 mm 2 mps 745 mmHg 92%
    09:00 -3°C° 0 mm 2 mps 745 mmHg 89%
    10:00 -2°C° 0 mm 2 mps 745 mmHg 87%
    11:00 -2°C° 0 mm 2 mps 745 mmHg 86%
    12:00 -2°C° 0 mm 2 mps 744 mmHg 85%
    13:00 -2°C° 0 mm 2 mps 744 mmHg 84%
    14:00 -2°C° 0 mm 2 mps 744 mmHg 87%
    15:00 -3°C° 0 mm 2 mps 744 mmHg 90%
    16:00 -3°C° 0 mm 2 mps 744 mmHg 93%
    17:00 -4°C° 0 mm 2 mps 745 mmHg 93%
    18:00 -4°C° 0 mm 2 mps 745 mmHg 93%
    19:00 -4°C° 0 mm 2 mps 745 mmHg 94%
    20:00 -5°C° 0 mm 2 mps 745 mmHg 94%
    21:00 -5°C° 0 mm 2 mps 745 mmHg 94%
    22:00 -6°C° 0 mm 2 mps 745 mmHg 94%
    23:00 -6°C° 0 mm 2 mps 745 mmHg 94%

    20 December, Thursday

    Time Temperature Precipitation Wind Pressure Humidity
    00:00 -6°C° 0 mm 2 mps 745 mmHg 93%
    01:00 -6°C° 0 mm 2 mps 744 mmHg 93%
    02:00 -6°C° 0 mm 2 mps 744 mmHg 92%
    03:00 -7°C° 0 mm 2 mps 744 mmHg 92%
    04:00 -7°C° 0 mm 2 mps 744 mmHg 91%
    05:00 -7°C° 0 mm 2 mps 745 mmHg 91%
    06:00 -7°C° 0 mm 2 mps 745 mmHg 90%
    07:00 -7°C° 0 mm 2 mps 745 mmHg 90%
    08:00 -6°C° 0 mm 2 mps 745 mmHg 88%
    09:00 -5°C° 0 mm 2 mps 745 mmHg 86%
    10:00 -4°C° 0 mm 2 mps 746 mmHg 84%
    11:00 -3°C° 0 mm 2 mps 745 mmHg 83%
    12:00 -3°C° 0 mm 2 mps 745 mmHg 83%
    13:00 -2°C° 0 mm 2 mps 745 mmHg 82%
    14:00 -3°C° 0 mm 2 mps 745 mmHg 85%
    15:00 -4°C° 0 mm 2 mps 745 mmHg 88%
    16:00 -5°C° 0 mm 2 mps 745 mmHg 91%
    17:00 -5°C° 0 mm 2 mps 745 mmHg 91%
    18:00 -5°C° 0 mm 2 mps 745 mmHg 92%
    19:00 -6°C° 0 mm 2 mps 745 mmHg 92%
    20:00 -6°C° 0 mm 2 mps 745 mmHg 92%
    21:00 -6°C° 0 mm 2 mps 745 mmHg 92%
    22:00 -6°C° 0 mm 2 mps 746 mmHg 91%
    23:00 -6°C° 0 mm 2 mps 746 mmHg 92%
    Show more